{"data":{"norad_id":65596,"epoch":"2026-09-20T22:00:03.000096Z","epoch_age_seconds":76002,"freshness":"FRESH","line1":"1 65596U 25207E   26263.91670139 -.00001830  00000+0 -54377-4 0  9995","line2":"2 65596  97.2849 326.4033 0001559  84.9852 120.4470 15.33442478  5799","mean_motion":15.33442478,"eccentricity":0.0001559,"inclination_deg":97.2849,"raan_deg":326.4033,"arg_perigee_deg":84.9852,"mean_anomaly_deg":120.447,"bstar":-5.4377e-5,"rev_number":579,"period_min":93.906359101133,"perigee_km":464.48374727701,"apogee_km":466.61760909507,"semimajor_km":6843.687678186,"source":"CELESTRAK","updated_at":"2026-09-21T09:00:35.653534Z"}}